Date String (YYYY-MM-DD hh:mm:ss) UTC,Instrument flags,Ambient pressure (hPa),Sample flow (lpm),Bypass flow (lpm),Sample temperature (°C),Ambient temperature (°C),ASC tube jacket temperature (°C),LED temperature (°C),Box temperature (°C),Sample RH (%),Mass concentration (μg/m³),Mass concentration (μg/m³)
DateTimeUTC,F1_M11,P_M11,Q1_M11,Q2_M11,T1_M11,T2_M11,T3_M11,T4_M11,T5_M11,U1_M11,X2_M11,X0_M11
2021-08-14 18:00:00,,0833.8,5.01,0.00,31.3,26.5,00.0,39.8,31.4,33.6,0010.82,0025.06
2021-08-14 18:01:00,,0833.9,5.00,0.00,31.2,26.2,00.0,39.8,31.3,33.8,0010.81,0025.75
2021-08-14 18:02:00,,0833.9,5.01,0.00,31.1,26.4,00.0,39.8,31.3,34.2,0010.83,0025.27
2021-08-14 18:03:00,,0833.8,4.98,0.00,31.0,26.8,00.0,39.7,31.4,33.5,0010.94,0025.05
2021-08-14 18:04:00,,0833.8,5.01,0.00,30.9,27.2,00.0,39.7,31.5,34.0,0010.95,0022.67
2021-08-14 18:05:00,,0833.9,4.99,0.00,30.9,27.6,00.0,39.7,31.6,33.7,0010.95,0021.77
2021-08-14 18:06:00,,0833.8,5.00,0.00,30.9,27.9,00.0,39.6,31.7,34.0,0010.93,0022.07
2021-08-14 18:07:00,,0833.8,5.00,0.00,30.9,28.0,00.0,39.6,31.7,33.9,0010.94,0021.79
2021-08-14 18:08:00,,0833.7,4.99,0.00,30.8,26.9,00.0,39.6,31.3,33.4,0010.99,0021.22
2021-08-14 18:09:00,,0833.7,5.00,0.00,30.6,26.1,00.0,39.5,31.0,33.4,0010.97,0022.60
2021-08-14 18:10:00,,0833.7,5.00,0.00,30.5,26.2,00.0,39.5,31.1,33.3,0010.92,0023.07
2021-08-14 18:11:00,,0833.7,5.01,0.00,30.5,26.5,00.0,39.4,31.2,33.6,0010.85,0022.66
2021-08-14 18:12:00,,0833.7,5.00,0.00,30.4,27.0,00.0,39.4,31.3,34.1,0010.80,0021.94
2021-08-14 18:13:00,,0833.7,5.00,0.00,30.4,27.4,00.0,39.3,31.4,34.0,0010.80,0022.21
2021-08-14 18:14:00,,0833.7,5.00,0.00,30.4,27.7,00.0,39.3,31.5,33.7,0010.72,0022.57
2021-08-14 18:15:00,,0833.7,5.01,0.00,30.4,28.0,00.0,39.3,31.6,33.8,0010.64,0022.83
2021-08-14 18:16:00,,0833.7,4.99,0.00,30.4,28.1,00.0,39.3,31.6,34.0,0010.52,0023.14
2021-08-14 18:17:00,,0833.6,5.00,0.00,30.3,27.0,00.0,39.3,31.2,33.7,0010.48,0022.97
2021-08-14 18:18:00,,0833.6,5.01,0.00,30.2,26.1,00.0,39.2,31.0,34.2,0010.44,0023.68
2021-08-14 18:19:00,,0833.7,5.01,0.00,30.1,26.1,00.0,39.2,31.0,34.1,0010.37,0023.69
2021-08-14 18:20:00,,0833.6,4.99,0.00,30.0,26.5,00.0,39.1,31.0,34.4,0010.35,0022.04
2021-08-14 18:21:00,,0833.6,4.99,0.00,30.0,26.9,00.0,39.1,31.1,34.1,0010.38,0021.45
2021-08-14 18:22:00,,0833.6,5.01,0.00,30.0,27.3,00.0,39.0,31.2,33.9,0010.43,0021.99
2021-08-14 18:23:00,,0833.6,5.01,0.00,30.0,27.6,00.0,39.0,31.3,33.8,0010.41,0021.96
2021-08-14 18:24:00,,0833.6,4.98,0.00,30.0,28.0,00.0,39.0,31.4,34.1,0010.41,0021.87
2021-08-14 18:25:00,,0833.6,5.01,0.00,30.0,27.6,00.0,39.0,31.3,35.0,0010.43,0022.24
2021-08-14 18:26:00,,0833.6,5.00,0.00,30.0,26.3,00.0,38.9,30.9,34.2,0010.43,0021.74
2021-08-14 18:27:00,,0833.6,5.01,0.00,30.0,25.9,00.0,38.9,30.8,33.9,0010.46,0021.57
2021-08-14 18:28:00,,0833.6,5.00,0.00,30.0,26.2,00.0,38.9,30.9,35.1,0010.46,0022.03
2021-08-14 18:29:00,,0833.6,5.00,0.00,30.1,26.6,00.0,38.8,31.0,34.8,0010.42,0021.61
2021-08-14 18:30:00,,0833.6,5.01,0.00,30.2,27.0,00.0,38.8,31.1,34.4,0010.43,0021.38
2021-08-14 18:31:00,,0833.6,4.99,0.00,30.2,27.4,00.0,38.8,31.2,34.6,0010.38,0021.78
2021-08-14 18:32:00,,0833.6,5.01,0.00,30.3,27.8,00.0,38.8,31.4,34.1,0010.38,0021.89
2021-08-14 18:33:00,,0833.6,4.99,0.00,30.3,28.0,00.0,38.9,31.4,34.2,0010.33,0022.08
2021-08-14 18:34:00,,0833.5,5.00,0.00,30.3,27.1,00.0,38.9,31.1,34.4,0010.30,0022.04
2021-08-14 18:35:00,,0833.5,5.01,0.00,30.1,26.1,00.0,38.9,30.8,34.5,0010.27,0022.56
2021-08-14 18:36:00,,0833.5,4.99,0.00,30.0,26.1,00.0,38.9,30.8,34.1,0010.21,0021.84
2021-08-14 18:37:00,,0833.5,5.00,0.00,30.0,26.4,00.0,38.9,30.8,34.7,0010.25,0023.09
2021-08-14 18:38:00,,0833.5,5.00,0.00,30.0,26.8,00.0,38.8,31.0,34.7,0010.31,0023.51
2021-08-14 18:39:00,,0833.5,5.01,0.00,30.0,27.2,00.0,38.8,31.1,33.7,0010.31,0023.21
2021-08-14 18:40:00,,0833.5,5.00,0.00,30.0,27.6,00.0,38.8,31.2,33.4,0010.33,0023.18
2021-08-14 18:41:00,,0833.5,4.99,0.00,30.0,27.9,00.0,38.8,31.3,33.8,0010.30,0023.05
2021-08-14 18:42:00,,0833.4,5.01,0.00,30.1,27.6,00.0,38.8,31.2,33.9,0010.34,0023.24
2021-08-14 18:43:00,,0833.4,5.00,0.00,30.0,26.4,00.0,38.8,30.8,34.2,0010.33,0023.68
2021-08-14 18:44:00,,0833.4,5.00,0.00,29.8,25.9,00.0,38.8,30.7,34.7,0010.33,0023.89
2021-08-14 18:45:00,,0833.4,5.01,0.00,29.8,26.2,00.0,38.8,30.8,34.2,0010.38,0024.15
2021-08-14 18:46:00,,0833.4,5.00,0.00,29.8,26.6,00.0,38.7,30.9,34.9,0010.36,0023.45
2021-08-14 18:47:00,,0833.4,4.98,0.00,29.9,27.0,00.0,38.7,31.1,33.9,0010.34,0023.48
2021-08-14 18:48:00,,0833.4,5.00,0.00,30.0,27.4,00.0,38.7,31.2,33.4,0010.33,0022.18
2021-08-14 18:49:00,,0833.4,5.01,0.00,30.1,27.7,00.0,38.7,31.3,33.4,0010.30,0022.49
2021-08-14 18:50:00,,0833.4,4.99,0.00,30.1,27.9,00.0,38.7,31.3,33.2,0010.30,0022.77
2021-08-14 18:51:00,,0833.4,4.99,0.00,30.1,27.1,00.0,38.7,31.0,33.2,0010.30,0022.60
2021-08-14 18:52:00,,0833.4,5.01,0.00,30.0,26.0,00.0,38.7,30.7,34.1,0010.31,0022.52
2021-08-14 18:53:00,,0833.4,4.99,0.00,29.9,26.0,00.0,38.7,30.7,34.1,0010.31,0022.05
2021-08-14 18:54:00,,0833.3,5.02,0.00,29.8,26.3,00.0,38.7,30.8,34.2,0010.32,0021.58
2021-08-14 18:55:00,,0833.3,4.98,0.00,29.8,26.7,00.0,38.7,30.9,34.1,0010.29,0020.62
2021-08-14 18:56:00,,0833.4,5.00,0.00,29.8,27.2,00.0,38.7,31.0,33.8,0010.30,0020.04
2021-08-14 18:57:00,,0833.4,5.01,0.00,29.8,27.5,00.0,38.7,31.1,33.7,0010.38,0020.03
2021-08-14 18:58:00,,0833.4,5.00,0.00,29.8,27.8,00.0,38.7,31.2,33.9,0010.43,0019.73
2021-08-14 18:59:00,,0833.4,4.99,0.00,29.9,27.6,00.0,38.7,31.1,33.6,0010.46,0020.08
